Location: Newark
(44.2886°N, 4.8431°E)
Time: 04:51:57
(UTC+00:00)

ZACube-1 - Visible Passes

Search period start: 26 November 2020 00:00
Search period end: 06 December 2020 00:00
Orbit: 583 x 667 km, 97.6° (Epoch: 25 November)

Date Brightness Start Highest point End Pass type
(mag) Time Alt. Az. Time Alt. Az. Time Alt. Az.
26 Nov ? 04:02:55 10° NE 04:05:52 19° E 04:08:50 10° SE visible
26 Nov ? 05:38:25 10° N 05:42:17 39° WNW 05:46:09 10° SW visible
26 Nov ? 16:35:00 10° S 16:39:05 43° W 16:43:07 10° NNW visible
27 Nov ? 04:21:10 10° NE 04:24:49 29° E 04:28:29 10° SSE visible
27 Nov ? 05:57:33 10° NNW 06:00:58 25° WNW 06:04:23 10° WSW visible
27 Nov ? 16:54:20 10° SSW 16:57:59 27° W 17:01:35 10° NW visible
28 Nov ? 04:39:40 10° NNE 04:43:42 47° E 04:47:44 10° S visible
28 Nov ? 06:16:56 10° NNW 06:19:36 17° WNW 06:22:17 10° WSW visible
28 Nov ? 17:14:05 10° SW 17:16:55 17° W 17:19:45 10° NW visible
29 Nov ? 04:58:21 10° NNE 05:02:32 77° ESE 05:06:44 10° S visible
29 Nov ? 17:34:54 10° WSW 17:35:55 11° W 17:36:56 10° WNW visible
30 Nov ? 03:43:16 10° ENE 03:44:39 11° E 03:46:02 10° ESE visible
30 Nov ? 05:17:11 10° N 05:21:19 65° WNW 05:25:29 10° SSW visible
01 Dec ? 04:00:43 10° NE 04:03:38 18° E 04:06:34 10° SE visible
01 Dec ? 05:36:08 10° N 05:40:03 40° WNW 05:44:00 10° SW visible
01 Dec ? 16:32:49 10° S 16:36:51 44° W 16:40:51 10° NNW visible
02 Dec ? 04:18:55 10° NE 04:22:34 28° E 04:26:14 10° SSE visible
02 Dec ? 05:55:15 10° NNW 05:58:44 26° WNW 06:02:16 10° SW visible
02 Dec ? 16:52:08 10° SSW 16:55:45 27° W 16:59:20 10° NW visible
03 Dec ? 04:37:25 10° NNE 04:41:27 45° E 04:45:32 10° S visible
03 Dec ? 06:14:36 10° NNW 06:17:23 18° WNW 06:20:11 10° WSW visible
03 Dec ? 17:11:50 10° SW 17:14:41 18° W 17:17:31 10° NW visible
04 Dec ? 04:56:05 10° NNE 05:00:17 75° E 05:04:33 10° S visible
04 Dec ? 17:32:32 10° WSW 17:33:40 11° W 17:34:48 10° WNW visible
05 Dec ? 03:41:06 10° ENE 03:42:24 11° E 03:43:42 10° ESE visible
05 Dec ? 05:14:53 10° N 05:19:04 68° WNW 05:23:19 10° SSW visible
